TimeEDT,TemperatureF,Dew PointF,Humidity,Sea Level PressureIn,VisibilityMPH,Wind Direction,Wind SpeedMPH,Gust SpeedMPH,PrecipitationIn,Events,Conditions,WindDirDegrees,DateUTC
12:56 AM,75.0,71.1,87,29.82,8.0,Calm,Calm,-,N/A,,Clear,0,2013-09-01 04:56:00
1:56 AM,73.0,71.1,93,29.80,6.0,SSW,3.5,-,N/A,,Clear,210,2013-09-01 05:56:00
2:56 AM,72.0,70.0,93,29.80,5.0,SW,3.5,-,N/A,,Mostly Cloudy,230,2013-09-01 06:56:00
3:56 AM,72.0,70.0,93,29.79,4.0,Calm,Calm,-,N/A,,Clear,0,2013-09-01 07:56:00
4:56 AM,72.0,70.0,93,29.81,4.0,Calm,Calm,-,N/A,,Partly Cloudy,0,2013-09-01 08:56:00
5:56 AM,72.0,69.1,91,29.83,6.0,Calm,Calm,-,N/A,,Overcast,0,2013-09-01 09:56:00
6:56 AM,71.1,70.0,96,29.83,3.0,Calm,Calm,-,N/A,,Scattered Clouds,0,2013-09-01 10:56:00
7:56 AM,73.9,71.1,91,29.84,4.0,Calm,Calm,-,N/A,,Mostly Cloudy,0,2013-09-01 11:56:00
8:56 AM,75.0,70.0,84,29.84,6.0,West,4.6,-,N/A,,Haze,270,2013-09-01 12:56:00
9:56 AM,77.0,70.0,79,29.85,7.0,Calm,Calm,-,N/A,,Clear,0,2013-09-01 13:56:00
10:56 AM,81.0,71.1,72,29.85,9.0,Calm,Calm,-,N/A,,Clear,0,2013-09-01 14:56:00
11:56 AM,82.9,70.0,65,29.84,10.0,NE,3.5,-,0.00,,Clear,40,2013-09-01 15:56:00
12:56 PM,82.9,71.1,67,29.82,10.0,ESE,4.6,-,N/A,,Mostly Cloudy,110,2013-09-01 16:56:00
1:56 PM,84.9,71.1,63,29.81,10.0,East,3.5,-,N/A,,Scattered Clouds,90,2013-09-01 17:56:00
2:56 PM,86.0,71.1,61,29.79,10.0,Calm,Calm,-,0.00,,Partly Cloudy,0,2013-09-01 18:56:00
3:56 PM,88.0,70.0,55,29.78,10.0,Variable,3.5,-,N/A,,Partly Cloudy,0,2013-09-01 19:56:00
4:56 PM,86.0,71.1,61,29.78,10.0,Calm,Calm,-,N/A,,Clear,0,2013-09-01 20:56:00
5:56 PM,84.9,71.1,63,29.77,10.0,Calm,Calm,-,N/A,,Clear,0,2013-09-01 21:56:00
6:56 PM,82.9,72.0,69,29.76,10.0,SSE,3.5,-,N/A,,Clear,160,2013-09-01 22:56:00
7:56 PM,81.0,72.0,74,29.78,10.0,ESE,4.6,-,N/A,,Scattered Clouds,110,2013-09-01 23:56:00
8:56 PM,80.1,71.1,74,29.79,10.0,ESE,5.8,-,N/A,,Partly Cloudy,110,2013-09-02 00:56:00
9:51 PM,80.6,71.6,74,29.80,10.0,ESE,3.5,-,N/A,Thunderstorm,Clear,110,2013-09-02 01:51:00
9:56 PM,80.1,73.0,79,29.80,10.0,ENE,3.5,-,N/A,Thunderstorm,Partly Cloudy,70,2013-09-02 01:56:00
10:38 PM,75.2,69.8,83,29.83,10.0,WNW,11.5,20.7,N/A,Thunderstorm,Thunderstorm,300,2013-09-02 02:38:00
10:56 PM,73.0,68.0,84,29.83,10.0,West,3.5,-,N/A,Thunderstorm,Thunderstorm,260,2013-09-02 02:56:00
11:07 PM,73.4,68.0,83,29.82,10.0,Calm,Calm,-,N/A,Thunderstorm,Thunderstorm,0,2013-09-02 03:07:00
11:28 PM,71.6,69.8,94,29.81,10.0,SSW,3.5,-,N/A,,Mostly Cloudy,210,2013-09-02 03:28:00
11:56 PM,72.0,69.1,91,29.79,10.0,Calm,Calm,-,N/A,,Scattered Clouds,0,2013-09-02 03:56:00